Flag for U.S.A. Weather past 2 weeks in State College, Pennsylvania, U.S.A.

Now
48 °F

Sunny.


Feels Like: 48 °F
Forecast: 34 / 58 °F
Wind: No wind

Location: University Park Airport

Current Time: Apr 25, 2015 at 9:55:56 PM

Latest Report: Apr 25, 2015 at 8:53 PM


Visibility: 10 mi

Pressure: 29.70 "Hg

Humidity: 32%

Dew point: 19 °F

Location of State CollegeLocation

Historic Weather in State College — Graph

°F

State College temperature yesterday

Maximum temperature yesterday: 52 °F (at 4:53 PM)
Minimum temperature yesterday: 32 °F (at 2:15 AM)
Average temperature yesterday: 37 °F

Past Weeks' High & Low Weather Summary

 TemperatureHumidityPressure
High77 °F (Apr 13, 3:53 PM)100% (Apr 17, 8:53 AM)30.42 "Hg (Apr 17, 8:53 AM)
Low32 °F (Apr 24, 2:15 AM)15% (Apr 15, 3:53 PM)29.46 "Hg (Apr 20, 6:53 PM)
Average49 °F60%30.00 "Hg
* Reported Apr 10 7:53 PM — Apr 25 7:53 PM, State College, Weather by CustomWeather, © 2015

Note: Actual official high and low records may vary slightly from our data, if they occured in-between our weather recording intervals... More about our weather records

Advertising

State College weather history for previous 24 hours

 ConditionsComfort  
Time TempWeatherWind HumidityBarometerVisibility
7:53 PM
Sat, Apr 25
50 °FSunny.No wind30%29.71 "Hg10 mi
6:53 PM50 °FSunny.3 mph32%29.70 "Hg10 mi
5:53 PM52 °FSunny.5 mph32%29.71 "Hg10 mi
4:53 PM52 °FSunny.6 mph32%29.73 "Hg10 mi
3:53 PM52 °FSunny.No wind32%29.76 "Hg10 mi
2:53 PM50 °FSunny.No wind32%29.79 "Hg10 mi
1:53 PM48 °FOvercast.No wind34%29.83 "Hg10 mi
12:53 PM48 °FOvercast.No wind34%29.86 "Hg10 mi
11:53 AM43 °FOvercast.No wind36%29.89 "Hg10 mi
10:53 AM39 °FSunny.No wind45%29.92 "Hg10 mi
9:53 AM37 °FSunny.No wind45%29.93 "Hg10 mi
8:53 AM36 °FOvercast.No wind52%29.94 "Hg10 mi
7:53 AM34 °FOvercast.No wind65%29.95 "Hg10 mi
6:53 AM32 °FOvercast.No wind64%29.95 "Hg10 mi
5:53 AM32 °FPassing clouds.No wind60%29.93 "Hg10 mi
5:35 AM34 °FClear.No wind53%29.94 "Hg10 mi
5:15 AM34 °FClear.No wind50%29.94 "Hg10 mi
4:55 AM34 °FClear.3 mph52%29.94 "Hg10 mi
4:35 AM34 °FClear.No wind50%29.94 "Hg10 mi
4:15 AM34 °FClear.No wind50%29.95 "Hg10 mi
3:55 AM33 °FClear.No wind53%29.95 "Hg10 mi
3:35 AM33 °FClear.No wind52%29.95 "Hg10 mi
3:15 AM33 °FClear.No wind51%29.95 "Hg10 mi
2:55 AM33 °FClear.No wind49%29.95 "Hg10 mi
2:35 AM33 °FClear.No wind51%29.96 "Hg10 mi
2:15 AM33 °FClear.No wind51%29.96 "Hg10 mi
1:55 AM34 °FClear.No wind46%29.96 "Hg10 mi
1:15 AM35 °FClear.3 mph44%29.97 "Hg10 mi
12:55 AM36 °FClear.6 mph41%29.97 "Hg10 mi
12:35 AM36 °FClear.7 mph39%29.96 "Hg10 mi
12:15 AM37 °FClear.6 mph37%29.97 "Hg10 mi
11:15 PM
Fri, Apr 24
39 °FClear.8 mph32%29.98 "Hg10 mi
10:55 PM40 °FClear.10 mph30%29.98 "Hg10 mi
10:15 PM41 °FClear.10 mph28%29.96 "Hg10 mi
Weather by CustomWeather, © 2015

See weather overviewHow to use our weather pages